�N����,����,�~����,�C��,���x,�C��,����,���ϕ���,�ő�u�ԕ���,�ő厞����,���˗�,�I�_���x,�n�����x,�ő啗���N��,DTYPE
"21/09/16","00:10",0.0,18.1,91.7,1010.4,254.6,0.5,0.9,231.6,0.00,16.8,22.9,"00:09:44",1
"21/09/16","00:20",0.0,18.5,91.6,1010.2,279.2,0.8,2.2,234.1,0.00,17.1,23.1,"00:12:32",1
"21/09/16","00:30",0.0,18.3,91.8,1010.0,309.0,1.0,1.6,332.8,0.00,17.0,23.1,"00:21:36",1
"21/09/16","00:40",0.0,18.2,92.0,1010.0,304.0,1.0,1.3,320.3,0.00,16.9,23.0,"00:34:32",1
"21/09/16","00:50",0.0,18.4,92.1,1010.4,310.5,0.7,1.9,329.7,0.00,17.1,23.0,"00:49:36",1
"21/09/16","01:00",0.0,18.7,92.2,1010.2,318.2,1.5,2.4,322.5,0.00,17.4,23.1,"00:54:24",1
"21/09/16","01:10",0.0,18.7,92.3,1010.0,330.0,1.3,2.2,338.6,0.00,17.5,23.0,"01:00:48",1
"21/09/16","01:20",0.0,18.6,92.4,1010.2,326.7,1.2,1.9,334.0,0.00,17.4,23.0,"01:18:40",1
"21/09/16","01:30",0.0,18.6,92.6,1010.2,327.6,1.5,2.4,336.6,0.00,17.4,22.8,"01:28:32",1
"21/09/16","01:40",0.0,18.8,92.6,1009.7,332.2,1.7,2.9,339.4,0.00,17.6,23.0,"01:33:12",1
"21/09/16","01:50",0.0,18.8,92.5,1010.0,324.4,1.7,3.1,339.4,0.00,17.6,22.8,"01:41:20",1
"21/09/16","02:00",0.0,18.9,92.6,1010.0,329.6,1.7,3.6,336.8,0.00,17.7,23.0,"01:57:04",1
"21/09/16","02:10",0.0,18.8,92.6,1010.0,332.9,1.8,4.1,336.1,0.00,17.6,22.9,"02:02:48",1
"21/09/16","02:20",0.0,18.6,92.6,1009.7,336.4,1.3,2.7,326.1,0.00,17.4,22.9,"02:13:12",1
"21/09/16","02:30",0.0,18.5,92.6,1009.5,333.8,1.7,2.9,340.7,0.00,17.3,23.0,"02:24:32",1
"21/09/16","02:40",0.0,18.4,92.8,1009.5,328.2,1.7,3.2,332.7,0.00,17.3,22.7,"02:38:00",1
"21/09/16","02:50",0.0,18.3,93.0,1009.5,323.8,1.7,2.5,318.1,0.00,17.2,22.7,"02:47:04",1
"21/09/16","03:00",0.0,18.5,93.0,1009.7,320.8,2.1,3.3,343.3,0.00,17.4,22.7,"02:58:40",1
"21/09/16","03:10",0.0,18.6,92.9,1009.7,325.2,2.2,3.9,332.4,0.00,17.5,22.8,"03:00:16",1
"21/09/16","03:20",0.0,18.5,93.0,1009.5,333.2,2.0,3.1,345.5,0.00,17.4,22.7,"03:14:48",1
"21/09/16","03:30",0.0,18.4,93.1,1009.5,332.8,2.0,3.3,351.7,0.00,17.3,22.7,"03:21:12",1
"21/09/16","03:40",0.0,18.4,93.2,1009.3,329.7,2.1,3.9,320.3,0.00,17.3,22.7,"03:30:02",1
"21/09/16","03:50",0.0,18.5,93.1,1009.3,328.8,2.5,4.7,339.7,0.00,17.4,22.8,"03:44:08",1
"21/09/16","04:00",0.0,18.5,93.0,1009.5,328.7,2.2,3.7,343.8,0.00,17.4,22.7,"03:56:16",1
"21/09/16","04:10",0.0,18.5,93.0,1009.5,332.5,2.0,3.4,310.7,0.00,17.4,22.5,"04:09:36",1
"21/09/16","04:20",0.0,18.6,92.9,1009.3,328.1,2.6,5.2,343.8,0.00,17.5,22.3,"04:18:08",1
"21/09/16","04:30",0.0,18.5,92.9,1009.3,327.8,2.5,4.2,343.4,0.00,17.4,22.6,"04:22:48",1
"21/09/16","04:40",0.0,18.5,92.9,1009.3,329.5,2.5,4.1,335.1,0.00,17.4,22.8,"04:39:36",1
"21/09/16","04:50",0.0,18.5,92.8,1009.5,321.1,2.1,3.6,346.5,0.00,17.4,22.5,"04:48:40",1
"21/09/16","05:00",0.0,18.4,92.8,1009.3,321.4,1.7,3.3,342.2,0.00,17.3,22.3,"04:52:08",1
"21/09/16","05:10",0.0,18.2,92.8,1009.3,328.8,1.5,3.1,321.6,0.00,17.1,22.4,"05:03:28",1
"21/09/16","05:20",0.0,17.9,92.8,1009.5,319.6,1.2,2.2,339.1,0.00,16.8,22.5,"05:10:56",1
"21/09/16","05:30",0.0,17.9,93.0,1009.5,318.8,1.3,2.5,327.0,0.00,16.8,22.5,"05:29:36",1
"21/09/16","05:40",0.0,18.1,93.0,1009.5,324.0,2.0,3.9,322.7,0.00,17.0,22.4,"05:34:56",1
"21/09/16","05:50",0.0,18.1,93.1,1009.5,331.3,1.6,3.6,340.8,0.00,17.0,22.6,"05:40:24",1
"21/09/16","06:00",0.0,18.3,93.2,1009.7,336.9,1.8,3.5,342.9,0.00,17.2,22.6,"05:56:24",1
"21/09/16","06:10",0.0,18.3,93.1,1009.7,333.2,1.7,3.6,340.9,0.00,17.2,22.3,"06:00:56",1
"21/09/16","06:20",0.0,18.2,93.1,1009.7,335.4,1.8,3.5,340.5,0.00,17.1,22.4,"06:19:04",1
"21/09/16","06:30",0.0,18.4,93.1,1010.0,326.5,2.5,4.9,344.4,0.00,17.3,22.4,"06:28:24",1
"21/09/16","06:40",0.0,18.6,93.1,1010.0,331.0,2.5,4.2,335.1,0.00,17.5,22.3,"06:34:00",1
"21/09/16","06:50",0.0,18.8,92.9,1010.2,331.8,2.2,4.4,342.3,0.00,17.7,22.2,"06:41:52",1
"21/09/16","07:00",0.0,18.9,92.8,1010.0,339.0,1.2,2.5,343.1,0.00,17.7,22.2,"06:54:24",1
"21/09/16","07:10",0.0,19.0,92.7,1010.2,332.8,1.3,2.1,333.1,0.01,17.8,22.2,"07:04:48",1
"21/09/16","07:20",0.0,19.1,92.4,1010.4,332.4,1.7,3.1,336.1,0.03,17.9,22.2,"07:13:04",1
"21/09/16","07:30",0.0,19.4,92.1,1010.4,329.1,1.5,2.7,331.7,0.04,18.1,22.3,"07:27:20",1
"21/09/16","07:40",0.0,19.6,91.7,1010.2,334.2,1.6,2.7,335.7,0.03,18.3,22.3,"07:38:32",1
"21/09/16","07:50",0.0,19.9,91.4,1010.2,322.5,1.3,2.6,322.0,0.05,18.5,22.2,"07:47:12",1
"21/09/16","08:00",0.0,20.1,90.9,1010.0,329.4,1.5,3.4,336.5,0.06,18.6,22.3,"07:50:40",1
"21/09/16","08:10",0.0,20.5,90.5,1010.2,315.5,1.3,2.4,336.0,0.09,18.9,22.3,"08:05:44",1
"21/09/16","08:20",0.0,20.8,89.4,1010.7,314.6,1.7,3.3,339.5,0.11,19.0,22.3,"08:14:16",1
"21/09/16","08:30",0.0,20.9,88.3,1010.9,323.5,1.7,3.3,343.2,0.08,18.9,22.2,"08:25:28",1
"21/09/16","08:40",0.0,20.9,87.5,1010.7,329.5,2.0,4.3,342.3,0.06,18.8,22.3,"08:31:20",1
"21/09/16","08:50",0.0,21.2,86.8,1010.2,331.1,1.7,2.8,340.8,0.11,19.0,22.2,"08:40:16",1
"21/09/16","09:00",0.0,21.4,85.7,1010.0,337.7,1.8,4.0,341.6,0.11,18.9,22.3,"08:54:00",1
"21/09/16","09:10",0.0,21.5,84.7,1010.2,333.8,1.8,4.0,346.1,0.06,18.9,22.2,"09:00:24",1
"21/09/16","09:20",0.0,22.0,84.4,1010.2,312.5,1.1,2.1,335.5,0.14,19.3,22.3,"09:11:28",1
"21/09/16","09:30",0.0,22.5,83.5,1010.0,303.8,1.0,2.0,346.7,0.19,19.6,22.3,"09:24:24",1
"21/09/16","09:40",0.0,23.0,82.0,1009.7,302.8,1.1,2.4,351.5,0.18,19.8,22.2,"09:30:48",1
"21/09/16","09:50",0.0,23.5,80.7,1009.5,271.0,1.0,1.9,247.2,0.22,20.0,22.3,"09:47:36",1
"21/09/16","10:00",0.0,24.4,78.6,1009.5,248.7,1.0,2.5,231.8,0.36,20.5,22.4,"09:57:36",1
"21/09/16","10:10",0.0,25.5,74.5,1009.3,217.7,1.0,2.8,239.1,0.41,20.7,22.3,"10:02:16",1
"21/09/16","10:20",0.0,26.1,71.1,1008.3,175.2,0.6,1.9,203.0,0.25,20.5,22.5,"10:15:44",1
"21/09/16","10:30",0.0,26.6,69.3,1008.6,148.5,0.7,1.7,95.3,0.31,20.6,22.6,"10:24:00",1
"21/09/16","10:40",0.0,26.6,68.7,1008.6,109.6,0.7,1.8,41.0,0.22,20.4,22.4,"10:34:48",1
"21/09/16","10:50",0.0,26.6,69.4,1008.3,126.8,1.1,2.5,161.1,0.23,20.6,22.4,"10:46:00",1
"21/09/16","11:00",0.0,26.3,69.8,1008.1,97.9,1.0,2.7,96.8,0.17,20.4,22.6,"10:52:48",1
"21/09/16","11:10",0.0,26.1,70.8,1007.8,93.5,1.0,2.6,131.0,0.11,20.4,22.5,"11:02:48",1
"21/09/16","11:20",0.0,26.3,71.9,1007.6,118.8,0.8,2.6,103.7,0.17,20.9,22.6,"11:12:08",1
"21/09/16","11:30",0.0,26.0,71.9,1007.8,100.5,1.0,2.5,113.3,0.11,20.6,22.7,"11:24:48",1
"21/09/16","11:40",0.0,26.2,72.4,1007.8,106.9,1.2,3.6,116.3,0.18,20.9,22.9,"11:34:24",1
"21/09/16","11:50",0.0,26.6,72.4,1007.4,105.0,1.0,2.8,151.0,0.26,21.3,22.8,"11:44:56",1
"21/09/16","12:00",0.0,26.6,71.8,1007.6,134.5,1.6,3.4,101.4,0.24,21.1,22.7,"11:50:56",1
"21/09/16","12:10",0.0,26.8,70.9,1007.8,89.8,1.2,3.7,94.7,0.21,21.1,23.0,"12:00:08",1
"21/09/16","12:20",0.0,26.7,70.9,1007.4,20.8,0.6,1.8,7.1,0.09,21.0,22.9,"12:13:20",1
"21/09/16","12:30",0.0,26.5,71.2,1006.9,10.5,0.6,2.0,51.5,0.09,20.9,22.9,"12:21:52",1
"21/09/16","12:40",0.0,26.9,71.4,1006.9,99.8,0.8,3.2,3.7,0.16,21.3,23.1,"12:34:24",1
"21/09/16","12:50",0.0,28.0,69.6,1007.1,150.4,0.8,2.0,131.5,0.43,22.0,22.9,"12:41:12",1
"21/09/16","13:00",0.0,27.6,67.8,1007.6,118.5,1.0,2.5,113.7,0.16,21.2,23.0,"12:51:44",1
"21/09/16","13:10",0.0,27.3,68.3,1007.4,62.2,0.6,1.6,28.8,0.08,21.0,23.2,"13:01:20",1
"21/09/16","13:20",0.0,26.8,69.0,1007.4,50.8,0.7,1.7,33.3,0.06,20.7,22.9,"13:10:24",1
"21/09/16","13:30",0.0,26.5,70.3,1006.7,11.6,0.8,2.5,348.0,0.05,20.7,23.2,"13:22:08",1
"21/09/16","13:40",0.0,26.6,71.7,1006.7,49.9,0.6,1.8,8.6,0.07,21.1,23.2,"13:31:04",1
"21/09/16","13:50",0.0,26.7,71.8,1006.9,46.8,0.5,1.7,42.6,0.11,21.2,23.2,"13:43:52",1
"21/09/16","14:00",0.0,26.8,70.8,1006.7,94.2,0.7,1.9,134.7,0.12,21.1,23.3,"13:53:12",1
"21/09/16","14:10",0.0,26.6,70.5,1007.1,13.0,0.8,2.4,5.7,0.04,20.8,23.2,"14:01:28",1
"21/09/16","14:20",0.0,26.5,71.1,1006.9,353.5,0.7,3.6,344.1,0.08,20.9,23.3,"14:17:44",1
"21/09/16","14:30",0.0,26.7,71.6,1006.7,21.0,0.6,1.7,341.1,0.08,21.2,23.4,"14:20:08",1
"21/09/16","14:40",0.0,26.9,71.4,1006.7,356.2,0.8,2.1,1.9,0.12,21.3,23.4,"14:32:56",1
"21/09/16","14:50",0.0,26.8,70.8,1006.9,0.4,0.7,1.7,337.3,0.06,21.1,23.3,"14:42:48",1
"21/09/16","15:00",0.0,26.7,71.1,1006.7,7.3,0.8,1.8,10.4,0.06,21.1,23.6,"14:50:02",1
"21/09/16","15:10",0.0,26.9,70.9,1006.7,53.4,0.7,2.4,45.7,0.12,21.2,23.7,"15:00:08",1
"21/09/16","15:20",0.0,26.7,70.9,1007.1,28.0,0.7,2.2,46.1,0.05,21.0,23.4,"15:19:04",1
"21/09/16","15:30",0.0,26.6,71.3,1006.7,42.4,0.7,1.6,56.0,0.05,21.0,23.6,"15:23:44",1
"21/09/16","15:40",0.0,26.3,72.1,1006.7,48.6,0.7,2.6,6.5,0.03,20.9,23.5,"15:38:00",1
"21/09/16","15:50",0.0,26.2,72.8,1006.9,47.4,0.6,2.0,22.3,0.01,21.0,23.7,"15:48:32",1
"21/09/16","16:00",0.0,26.0,73.0,1007.4,96.2,0.7,2.1,79.2,0.01,20.8,23.6,"15:50:56",1
"21/09/16","16:10",0.0,25.8,72.6,1006.9,132.4,0.8,4.0,129.7,0.03,20.5,23.6,"16:04:16",1
"21/09/16","16:20",0.0,26.1,70.1,1007.1,156.5,1.3,3.1,144.4,0.03,20.3,23.6,"16:11:20",1
"21/09/16","16:30",0.0,26.1,69.6,1007.1,134.1,1.2,2.6,173.1,0.00,20.1,23.6,"16:26:32",1
"21/09/16","16:40",0.0,25.8,70.1,1007.1,158.2,1.5,5.6,133.3,0.00,20.0,23.5,"16:37:44",1
"21/09/16","16:50",0.0,25.7,68.6,1007.4,148.7,1.2,3.5,124.3,0.01,19.5,23.6,"16:40:24",1
"21/09/16","17:00",0.0,25.5,67.8,1007.4,145.1,1.2,2.9,192.9,0.00,19.2,23.6,"16:56:24",1
"21/09/16","17:10",0.0,25.4,67.2,1007.4,142.6,1.1,3.4,143.2,0.00,18.9,23.7,"17:07:12",1
"21/09/16","17:20",0.0,25.4,67.2,1007.4,142.6,0.8,2.6,126.6,0.00,18.9,23.7,"17:13:04",1
"21/09/16","17:30",0.0,25.4,67.2,1007.6,145.4,1.0,2.4,119.9,0.00,18.9,23.5,"17:23:04",1
"21/09/16","17:40",0.0,25.2,67.1,1007.6,144.7,1.0,2.2,137.8,0.00,18.7,23.5,"17:38:48",1
"21/09/16","17:50",0.0,25.2,67.2,1008.1,150.2,1.1,2.1,132.8,0.00,18.7,23.6,"17:42:08",1
"21/09/16","18:00",0.0,25.1,67.9,1007.6,115.3,0.8,1.8,186.2,0.00,18.8,23.7,"17:51:12",1
"21/09/16","18:10",0.0,25.1,68.6,1007.8,141.0,0.7,2.4,111.9,0.00,19.0,23.6,"18:07:28",1
"21/09/16","18:20",0.0,25.0,68.8,1008.1,157.8,1.1,2.7,140.7,0.00,18.9,23.6,"18:10:08",1
"21/09/16","18:30",0.0,24.8,69.5,1008.3,176.8,1.0,2.5,176.6,0.00,18.9,23.5,"18:26:56",1
"21/09/16","18:40",0.0,24.5,71.0,1008.6,160.6,1.0,2.2,152.3,0.00,18.9,23.6,"18:30:16",1
"21/09/16","18:50",0.0,24.4,71.5,1008.6,119.4,0.8,2.1,127.5,0.00,19.0,23.4,"18:40:40",1
"21/09/16","19:00",0.0,24.4,71.8,1008.3,95.4,0.5,1.1,119.1,0.00,19.0,23.5,"18:50:24",1
"21/09/16","19:10",0.0,24.2,72.3,1009.0,67.9,0.3,1.1,102.3,0.00,18.9,23.5,"19:04:32",1
"21/09/16","19:20",0.0,24.1,72.2,1009.0,143.4,0.3,1.3,192.2,0.00,18.8,23.5,"19:12:40",1
"21/09/16","19:30",0.0,24.1,72.1,1008.8,137.2,0.2,0.9,119.2,0.00,18.8,23.5,"19:20:56",1
"21/09/16","19:40",0.0,24.1,72.1,1009.0,149.4,0.6,1.6,124.9,0.00,18.8,23.4,"19:39:28",1
"21/09/16","19:50",0.0,24.3,71.9,1009.3,174.6,0.8,2.5,134.0,0.00,18.9,23.3,"19:42:00",1
"21/09/16","20:00",0.0,24.4,71.7,1009.3,137.3,1.0,3.3,97.0,0.00,19.0,23.5,"19:50:40",1
"21/09/16","20:10",0.0,24.4,71.4,1009.3,148.7,0.8,2.7,135.3,0.00,18.9,23.5,"20:01:20",1
"21/09/16","20:20",0.0,24.3,71.7,1009.5,149.3,0.6,1.7,135.1,0.00,18.9,23.4,"20:13:44",1
"21/09/16","20:30",0.0,24.2,72.1,1009.5,152.2,0.7,2.4,145.5,0.00,18.9,23.4,"20:27:12",1
"21/09/16","20:40",0.0,24.2,72.4,1009.7,138.0,0.5,1.3,120.9,0.00,19.0,23.5,"20:36:56",1
"21/09/16","20:50",0.0,24.2,72.7,1009.7,190.3,0.5,2.2,165.1,0.00,19.0,23.2,"20:46:40",1
"21/09/16","21:00",0.0,24.0,73.1,1009.3,145.0,0.5,2.1,132.1,0.00,18.9,23.3,"20:52:40",1
"21/09/16","21:10",0.0,23.7,74.7,1009.7,341.6,1.0,2.0,315.8,0.00,19.0,23.5,"21:06:08",1
"21/09/16","21:20",0.0,23.3,76.4,1009.5,328.4,0.6,1.4,306.2,0.00,19.0,23.4,"21:12:00",1
"21/09/16","21:30",0.0,23.6,76.6,1009.3,176.1,0.5,1.4,191.6,0.00,19.3,23.3,"21:26:48",1
"21/09/16","21:40",0.0,23.8,76.4,1009.5,195.2,0.5,1.7,337.5,0.00,19.4,23.2,"21:39:20",1
"21/09/16","21:50",0.0,23.2,77.2,1009.5,321.8,0.7,1.7,340.4,0.00,19.0,23.3,"21:42:16",1
"21/09/16","22:00",0.0,23.0,78.4,1009.5,313.5,0.7,1.6,340.5,0.00,19.1,23.3,"21:59:12",1
"21/09/16","22:10",0.0,22.8,79.5,1009.7,303.4,0.8,1.7,244.8,0.00,19.1,23.3,"22:06:32",1
"21/09/16","22:20",0.0,22.6,80.5,1009.5,291.6,0.8,1.9,304.5,0.00,19.1,23.3,"22:15:04",1
"21/09/16","22:30",0.0,22.4,81.1,1009.3,301.5,0.7,1.3,309.2,0.00,19.0,23.2,"22:25:52",1
"21/09/16","22:40",0.0,22.4,82.0,1009.5,326.9,1.0,1.6,328.3,0.00,19.2,23.3,"22:36:00",1
"21/09/16","22:50",0.0,22.2,82.6,1009.5,310.0,0.7,1.1,317.3,0.00,19.1,23.3,"22:49:28",1
"21/09/16","23:00",0.0,22.2,83.4,1009.3,280.4,0.8,1.2,280.1,0.00,19.3,23.2,"22:59:28",1
"21/09/16","23:10",0.0,22.3,83.8,1009.5,298.9,1.1,1.3,321.9,0.00,19.5,23.3,"23:02:24",1
"21/09/16","23:20",0.0,22.2,84.1,1009.3,291.6,0.8,1.4,312.0,0.00,19.4,23.2,"23:10:16",1
"21/09/16","23:30",0.0,22.2,84.4,1009.3,289.6,1.0,1.4,311.6,0.00,19.5,23.3,"23:29:04",1
"21/09/16","23:40",0.0,22.2,84.7,1009.5,295.2,1.1,1.6,282.0,0.00,19.5,23.3,"23:34:00",1
"21/09/16","23:50",0.0,22.2,84.9,1009.3,287.9,0.8,1.6,315.0,0.00,19.6,23.4,"23:40:16",1
"21/09/16","24:00",0.0,22.3,85.1,1009.3,321.0,1.0,1.6,338.4,0.00,19.7,23.2,"23:55:44",1
